FW7047 Weather Reports


time (UTC)temp
F
wind
direction
speed
knots
gust
knots
rain 1hr
in
rain 24hr
in
rain mn
in
humidity
%
barometer
mb
20211025042514 47 123 13.9 0.0 0.00 0.00 0.00 53 1003.9
20211025041519 47 120 13.0 0.0 0.00 0.00 0.00 53 1004.5
20211025040521 48 167 15.6 0.0 0.00 0.00 0.00 53 1004.1
20211025035522 48 153 14.8 0.0 0.00 0.00 0.00 53 1004.3
20211025034526 47 159 14.8 0.0 0.00 0.00 0.00 54 1004.4
20211025033528 47 103 14.8 0.0 0.00 0.00 0.00 54 1004.6
20211025032529 47 157 13.9 0.0 0.00 0.00 0.00 54 1004.3
20211025031514 47 163 14.8 0.0 0.00 0.00 0.00 55 1004.7
20211025030516 47 150 12.2 0.0 0.00 0.00 0.00 54 1004.9
20211025025516 47 155 12.2 0.0 0.00 0.00 0.00 54 1004.8
20211025024517 47 128 12.2 0.0 0.00 0.00 0.00 54 1005.1
20211025023525 47 157 12.2 0.0 0.00 0.00 0.00 54 1005.3
20211025022522 47 124 3.5 0.0 0.00 0.00 0.00 53 1004.6
20211025021522 47 120 11.3 0.0 0.00 0.00 0.00 52 1004.7
20211025020529 48 134 12.2 0.0 0.00 0.00 0.00 52 1004.4
20211025015528 48 103 12.2 0.0 0.00 0.00 0.00 52 1004.7
20211025014529 48 139 13.0 0.0 0.00 0.00 0.00 51 1004.9
20211025013516 47 130 12.2 0.0 0.00 0.00 0.00 52 1004.8
20211025012516 48 148 11.3 0.0 0.00 0.00 0.00 50 1004.8
20211025011517 48 148 12.2 0.0 0.00 0.00 0.00 50 1004.5
20211025010524 48 142 11.3 0.0 0.00 0.00 0.00 49 1004.6
20211025005523 48 11 12.2 0.0 0.00 0.00 0.00 49 1004.4
20211025004524 48 105 12.2 0.0 0.00 0.00 0.00 49 1004.2
20211025003531 48 98 12.2 0.0 0.00 0.00 0.00 48 1004.2
20211025002511 48 103 12.2 0.0 0.00 0.00 0.00 48 1004.2
20211025001512 48 88 11.3 0.0 0.00 0.00 0.00 46 1004.2
20211025000517 49 91 11.3 0.0 0.00 0.00 0.00 44 1004.2
20211024235518 49 92 10.4 0.0 0.00 0.00 0.00 44 1004.1
20211024234520 49 115 8.7 0.0 0.00 0.00 0.00 44 1004.5
20211024233521 49 99 7.0 0.0 0.00 0.00 0.00 44 1004.8
20211024232526 49 118 4.3 0.0 0.00 0.00 0.00 44 1004.8
20211024231526 49 99 4.3 0.0 0.00 0.00 0.00 43 1005.3
20211024230528 50 103 7.0 0.0 0.00 0.00 0.00 43 1005.0
20211024225512 50 93 8.7 0.0 0.00 0.00 0.00 43 1005.3
20211024224513 49 90 9.6 0.0 0.00 0.00 0.00 43 1005.4
20211024223515 49 78 7.8 0.0 0.00 0.00 0.00 43 1005.6
20211024222520 49 90 5.2 0.0 0.00 0.00 0.00 43 1005.7
20211024221520 50 128 1.7 0.0 0.00 0.00 0.00 43 1005.8
20211024220521 50 53 8.7 0.0 0.00 0.00 0.00 42 1006.0
20211024215526 50 167 8.7 0.0 0.00 0.00 0.00 42 1006.1
20211024214528 50 48 8.7 0.0 0.00 0.00 0.00 42 1006.1
20211024213528 50 150 9.6 0.0 0.00 0.00 0.00 42 1005.7
20211024212513 51 157 8.7 0.0 0.00 0.00 0.00 41 1005.7
20211024211514 50 71 5.2 0.0 0.00 0.00 0.00 42 1005.8
20211024210516 50 115 9.6 0.0 0.00 0.00 0.00 42 1005.6
20211024205521 50 169 0.9 0.0 0.00 0.00 0.00 43 1005.6
20211024204521 50 174 0.0 0.0 0.00 0.00 0.00 42 1005.6
20211024203524 50 166 0.0 0.0 0.00 0.00 0.00 42 1005.7
20211024202524 50 154 7.0 0.0 0.00 0.00 0.00 43 1005.8
20211024201529 50 152 1.7 0.0 0.00 0.00 0.00 43 1005.6
20211024200512 50 140 0.0 0.0 0.00 0.00 0.00 42 1005.7
20211024195511 51 169 0.0 0.0 0.00 0.00 0.00 42 1005.7
20211024194517 51 131 1.7 0.0 0.00 0.00 0.00 41 1005.5
20211024193519 50 121 0.0 0.0 0.00 0.00 0.00 43 1005.7
20211024192520 50 145 0.0 0.0 0.00 0.00 0.00 44 1006.0
20211024191525 49 146 0.0 0.0 0.00 0.00 0.00 44 1006.2
20211024190526 49 123 1.7 0.0 0.00 0.00 0.00 44 1006.5
20211024185527 48 158 7.8 0.0 0.00 0.00 0.00 46 1006.6
20211024184512 48 157 7.0 0.0 0.00 0.00 0.00 45 1006.9
20211024183513 47 167 7.8 0.0 0.00 0.00 0.00 48 1007.1
20211024182513 47 192 7.8 0.0 0.00 0.00 0.00 47 1007.2
20211024181519 47 148 8.7 0.0 0.00 0.00 0.00 48 1007.5
20211024180520 47 128 7.0 0.0 0.00 0.00 0.00 48 1007.2
20211024175522 47 169 9.6 0.0 0.00 0.00 0.00 49 1007.5
20211024174527 47 183 9.6 0.0 0.00 0.00 0.00 49 1007.7
20211024173528 47 152 1.7 0.0 0.00 0.00 0.00 48 1007.6
20211024172528 47 200 0.0 0.0 0.00 0.00 0.00 48 1007.4
20211024171513 47 155 0.0 0.0 0.00 0.00 0.00 47 1007.1
20211024170516 47 169 0.0 0.0 0.00 0.00 0.00 48 1007.1
20211024165516 46 171 0.0 0.0 0.00 0.00 0.00 49 1007.2
20211024164517 46 158 0.0 0.0 0.00 0.00 0.00 52 1007.4
20211024163523 45 141 0.0 0.0 0.00 0.00 0.00 53 1007.5
20211024162523 45 166 0.0 0.0 0.00 0.00 0.00 53 1007.6
20211024161524 46 159 0.0 0.0 0.00 0.00 0.00 52 1007.4
20211024160530 46 173 0.0 0.0 0.00 0.00 0.00 53 1007.4
20211024155531 45 175 0.0 0.0 0.00 0.00 0.00 55 1007.5
20211024154530 44 200 0.0 0.0 0.00 0.00 0.00 54 1007.4
20211024153517 44 132 0.0 0.0 0.00 0.00 0.00 55 1007.3
20211024152518 43 141 0.0 0.0 0.00 0.00 0.00 57 1007.3
20211024151518 41 123 0.0 0.0 0.00 0.00 0.00 59 1007.4
20211024150524 40 119 0.0 0.0 0.00 0.00 0.00 60 1007.3
20211024145525 40 97 0.0 0.0 0.00 0.00 0.00 59 1007.3
20211024144526 40 178 0.0 0.0 0.00 0.00 0.00 59 1007.3
20211024143531 40 194 0.0 0.0 0.00 0.00 0.00 60 1007.1
20211024142512 40 173 0.0 0.0 0.00 0.00 0.00 58 1007.1
20211024141513 41 349 0.0 0.0 0.00 0.00 0.00 58 1006.9
20211024140518 40 322 0.0 0.0 0.00 0.00 0.00 58 1006.9
20211024135519 39 335 0.0 0.0 0.00 0.00 0.00 58 1006.9
20211024134520 38 301 0.0 0.0 0.00 0.00 0.00 58 1006.9
20211024133522 38 300 0.0 0.0 0.00 0.00 0.00 56 1006.9
20211024132527 38 300 0.0 0.0 0.00 0.00 0.00 55 1006.8
20211024131528 39 300 0.0 0.0 0.00 0.00 0.00 54 1006.7
20211024130529 39 300 0.0 0.0 0.00 0.00 0.00 53 1006.7
20211024125514 39 224 0.0 0.0 0.00 0.00 0.00 54 1006.8
20211024124514 38 233 0.0 0.0 0.00 0.00 0.00 58 1006.7
20211024123516 37 251 0.0 0.0 0.00 0.00 0.00 61 1006.5
20211024122522 37 252 0.0 0.0 0.00 0.00 0.00 61 1006.5
20211024121523 37 237 0.0 0.0 0.00 0.00 0.00 62 1006.5
20211024120524 37 234 0.0 0.0 0.00 0.00 0.00 62 1006.4
20211024115529 38 221 0.0 0.0 0.00 0.00 0.00 62 1006.3
20211024114530 38 223 0.0 0.0 0.00 0.00 0.00 62 1006.0
20211024113512 38 207 0.0 0.0 0.00 0.00 0.00 62 1006.0
20211024112516 38 202 0.0 0.0 0.00 0.00 0.00 62 1005.9
20211024111517 38 196 0.0 0.0 0.00 0.00 0.00 62 1005.8
20211024110518 38 161 0.0 0.0 0.00 0.00 0.00 62 1005.8
20211024105523 38 193 0.0 0.0 0.00 0.00 0.00 62 1005.7
20211024104524 38 238 0.0 0.0 0.00 0.00 0.00 62 1005.5
20211024103526 38 197 0.0 0.0 0.00 0.00 0.00 63 1005.5
20211024102527 38 190 0.0 0.0 0.00 0.00 0.00 62 1005.5
20211024101512 38 200 2.6 0.0 0.00 0.00 0.00 62 1005.4
20211024100512 38 194 0.0 0.0 0.00 0.00 0.00 61 1005.3
20211024095513 39 161 0.0 0.0 0.00 0.00 0.00 60 1005.3
20211024094518 39 244 0.0 0.0 0.00 0.00 0.00 60 1005.4
20211024093520 39 228 0.0 0.0 0.00 0.00 0.00 59 1005.3
20211024092520 39 194 0.0 0.0 0.00 0.00 0.00 58 1005.3
20211024091525 39 227 0.0 0.0 0.00 0.00 0.00 57 1005.2
20211024090527 39 213 0.0 0.0 0.00 0.00 0.00 58 1005.9
20211024085528 39 161 0.0 0.0 0.00 0.00 0.00 57 1005.8
20211024084513 39 181 0.0 0.0 0.00 0.00 0.00 56 1005.7
20211024083514 39 216 0.0 0.0 0.00 0.00 0.00 56 1005.7
20211024082516 39 193 0.0 0.0 0.00 0.00 0.00 56 1005.7
20211024081520 39 189 0.0 0.0 0.00 0.00 0.00 55 1005.6
20211024080520 39 206 0.0 0.0 0.00 0.00 0.00 55 1005.6
20211024075522 40 213 0.0 0.0 0.00 0.00 0.00 55 1005.6
20211024074527 40 206 0.0 0.0 0.00 0.00 0.00 54 1005.7
20211024073529 41 207 0.0 0.0 0.00 0.00 0.00 53 1005.5
20211024072530 41 225 0.0 0.0 0.00 0.00 0.00 53 1005.5
20211024071515 41 198 0.0 0.0 0.00 0.00 0.00 53 1005.4
20211024070516 40 212 0.0 0.0 0.00 0.00 0.00 55 1005.2
20211024065518 38 228 0.0 0.0 0.00 0.00 0.00 59 1005.1
20211024064519 38 228 0.0 0.0 0.00 0.00 0.00 63 1005.0
20211024063524 38 227 0.0 0.0 0.00 0.00 0.00 66 1005.1
20211024062524 38 225 0.0 0.0 0.00 0.00 0.00 66 1005.1
20211024061526 39 225 0.0 0.0 0.00 0.00 0.00 66 1005.0
20211024060531 39 225 0.0 0.0 0.00 0.00 0.00 65 1005.2
20211024055512 39 211 0.0 0.0 0.00 0.00 0.00 64 1005.1
20211024054512 39 211 0.0 0.0 0.00 0.00 0.00 65 1005.1
20211024053519 39 211 0.0 0.0 0.00 0.00 0.00 64 1005.2
20211024052519 39 210 0.0 0.0 0.00 0.00 0.00 66 1005.1
20211024051520 39 210 0.0 0.0 0.00 0.00 0.00 67 1005.1
20211024050525 40 209 0.0 0.0 0.00 0.00 0.00 67 1005.3
20211024045526 40 305 0.0 0.0 0.00 0.00 0.00 66 1005.1
20211024044528 40 306 0.0 0.0 0.00 0.00 0.00 63 1005.2
20211024043514 41 306 0.0 0.0 0.00 0.00 0.00 62 1005.0